TimeMDT,TemperatureF,Dew PointF,Humidity,Sea Level PressureIn,VisibilityMPH,Wind Direction,Wind SpeedMPH,Gust SpeedMPH,PrecipitationIn,Events,Conditions,WindDirDegrees,DateUTC
12:53 AM,43.0,37.9,82,29.67,10.0,WSW,5.8,-,N/A,,Clear,250,2012-10-16 06:53:00
1:53 AM,45.0,39.0,80,29.65,10.0,SW,3.5,-,N/A,,Clear,220,2012-10-16 07:53:00
2:53 AM,39.9,37.9,93,29.62,10.0,SW,4.6,-,N/A,,Clear,230,2012-10-16 08:53:00
3:53 AM,37.4,35.6,93,29.57,10.0,Calm,Calm,-,N/A,,Clear,0,2012-10-16 09:53:00
4:53 AM,39.0,37.0,93,29.57,10.0,Calm,Calm,-,N/A,,Clear,0,2012-10-16 10:53:00
5:53 AM,37.4,35.6,93,29.53,10.0,Calm,Calm,-,N/A,,Clear,0,2012-10-16 11:53:00
6:53 AM,37.9,36.0,93,29.50,10.0,NE,3.5,-,N/A,,Clear,40,2012-10-16 12:53:00
7:53 AM,39.0,37.0,93,29.49,10.0,Calm,Calm,-,N/A,,Clear,0,2012-10-16 13:53:00
8:53 AM,43.0,39.9,89,29.44,10.0,East,3.5,-,N/A,,Clear,80,2012-10-16 14:53:00
9:53 AM,50.0,43.0,77,29.39,10.0,East,3.5,-,N/A,,Clear,90,2012-10-16 15:53:00
10:53 AM,57.0,45.0,64,29.35,10.0,South,6.9,-,N/A,,Partly Cloudy,180,2012-10-16 16:53:00
11:53 AM,61.0,44.1,54,29.32,10.0,SW,5.8,-,N/A,,Mostly Cloudy,230,2012-10-16 17:53:00
12:53 PM,57.0,46.9,69,29.32,8.0,WSW,10.4,-,0.00,Rain,Light Rain,240,2012-10-16 18:53:00
1:53 PM,55.0,51.1,86,29.32,9.0,West,19.6,25.3,0.01,Rain,Light Rain,270,2012-10-16 19:53:00
2:53 PM,54.0,51.1,90,29.29,10.0,SW,8.1,-,0.06,Rain,Light Rain,220,2012-10-16 20:53:00
3:53 PM,55.0,51.1,86,29.26,10.0,WSW,4.6,-,0.00,,Partly Cloudy,240,2012-10-16 21:53:00
4:53 PM,55.0,52.0,89,29.29,7.0,SW,11.5,-,0.00,Rain,Light Rain,230,2012-10-16 22:53:00
5:53 PM,55.9,50.0,80,29.29,10.0,West,16.1,-,0.02,,Overcast,260,2012-10-16 23:53:00
6:53 PM,54.0,44.1,69,29.30,10.0,WSW,9.2,-,N/A,,Mostly Cloudy,250,2012-10-17 00:53:00
7:53 PM,53.1,41.0,64,29.33,10.0,West,20.7,27.6,N/A,,Partly Cloudy,270,2012-10-17 01:53:00
8:53 PM,50.0,39.0,66,29.36,10.0,West,25.3,34.5,N/A,,Scattered Clouds,280,2012-10-17 02:53:00
9:53 PM,48.0,39.9,74,29.36,10.0,West,26.5,36.8,N/A,,Overcast,270,2012-10-17 03:53:00
10:53 PM,46.9,41.0,80,29.34,10.0,West,28.8,42.6,0.00,,Overcast,270,2012-10-17 04:53:00
11:24 PM,44.6,42.8,93,29.33,7.0,West,27.6,39.1,0.01,Rain,Light Rain,270,2012-10-17 05:24:00
11:53 PM,45.0,42.1,90,29.36,6.0,West,24.2,34.5,0.04,Rain,Light Rain,270,2012-10-17 05:53:00